When you browse on this site, cookies collect data to enhance your experience and personalize the content and advertising you see.
Visit our Privacy Policy to learn more. By continuing to use the site, you agree to this use of cookies and data.
  • In Portugal
  • List of Countries
  • For 7 days
  • Water Temperature
  • Weather Map
  • Weather Widgets
  • user-avatar
    Login

    Hourly Weather Yakshichi

    Today, 23 September, Monday

    Time Temperature Precipitation Wind Pressure Humidity
    00:00 +6°C° 0 mm 4 mps 745 mmHg 80%
    01:00 +5°C° 0 mm 4 mps 746 mmHg 79%
    02:00 +5°C° 0 mm 4 mps 746 mmHg 78%
    03:00 +4°C° 0 mm 3 mps 746 mmHg 84%
    04:00 +3°C° 0 mm 3 mps 747 mmHg 89%
    05:00 +3°C° 0 mm 2 mps 747 mmHg 95%
    06:00 +2°C° 0 mm 3 mps 747 mmHg 90%
    07:00 +3°C° 0 mm 3 mps 748 mmHg 85%
    08:00 +4°C° 0 mm 3 mps 748 mmHg 80%
    09:00 +5°C° 0 mm 3 mps 748 mmHg 71%
    10:00 +8°C° 0 mm 3 mps 749 mmHg 62%
    11:00 +9°C° 0 mm 3 mps 749 mmHg 54%
    12:00 +10°C° 0 mm 3 mps 749 mmHg 50%
    13:00 +11°C° 0 mm 3 mps 749 mmHg 46%
    14:00 +12°C° 0 mm 2 mps 749 mmHg 42%
    15:00 +12°C° 0 mm 2 mps 748 mmHg 46%
    16:00 +10°C° 0 mm 2 mps 748 mmHg 50%
    17:00 +10°C° 0 mm 2 mps 748 mmHg 53%
    18:00 +8°C° 0 mm 2 mps 748 mmHg 56%
    19:00 +6°C° 0 mm 2 mps 748 mmHg 60%
    20:00 +5°C° 0 mm 2 mps 748 mmHg 63%
    21:00 +4°C° 0 mm 2 mps 748 mmHg 65%
    22:00 +4°C° 0 mm 2 mps 748 mmHg 67%
    23:00 +3°C° 0 mm 2 mps 748 mmHg 70%

    Tomorrow, 24 September, Tuesday

    Time Temperature Precipitation Wind Pressure Humidity
    00:00 +3°C° 0 mm 2 mps 748 mmHg 71%
    01:00 +3°C° 0 mm 2 mps 749 mmHg 72%
    02:00 +2°C° 0 mm 2 mps 749 mmHg 74%
    03:00 +2°C° 0 mm 2 mps 748 mmHg 75%
    04:00 +2°C° 0 mm 2 mps 748 mmHg 77%
    05:00 +2°C° 0 mm 1 mps 748 mmHg 78%
    06:00 +2°C° 0 mm 2 mps 748 mmHg 75%
    07:00 +3°C° 0 mm 2 mps 748 mmHg 71%
    08:00 +4°C° 0 mm 2 mps 748 mmHg 68%
    09:00 +6°C° 0 mm 2 mps 748 mmHg 62%
    10:00 +8°C° 0 mm 2 mps 748 mmHg 55%
    11:00 +10°C° 0 mm 2 mps 748 mmHg 49%
    12:00 +10°C° 0 mm 2 mps 747 mmHg 46%
    13:00 +12°C° 0 mm 2 mps 747 mmHg 43%
    14:00 +13°C° 0 mm 2 mps 747 mmHg 40%
    15:00 +12°C° 0 mm 2 mps 746 mmHg 45%
    16:00 +10°C° 0 mm 2 mps 746 mmHg 50%
    17:00 +10°C° 0 mm 2 mps 746 mmHg 54%
    18:00 +8°C° 0 mm 2 mps 746 mmHg 56%
    19:00 +7°C° 0 mm 2 mps 746 mmHg 59%
    20:00 +5°C° 0 mm 2 mps 746 mmHg 61%
    21:00 +4°C° 0 mm 3 mps 746 mmHg 62%
    22:00 +3°C° 0 mm 3 mps 746 mmHg 63%
    23:00 +3°C° 0 mm 3 mps 746 mmHg 64%

    Day after tomorrow, 25 September, Wednesday

    Time Temperature Precipitation Wind Pressure Humidity
    00:00 +2°C° 0 mm 3 mps 746 mmHg 64%
    01:00 +2°C° 0 mm 3 mps 745 mmHg 65%
    02:00 +2°C° 0 mm 3 mps 745 mmHg 66%
    03:00 +1°C° 0 mm 3 mps 745 mmHg 67%
    04:00 +1°C° 0 mm 3 mps 745 mmHg 68%
    05:00 +1°C° 0 mm 3 mps 745 mmHg 69%
    06:00 +2°C° 0 mm 3 mps 744 mmHg 66%
    07:00 +3°C° 0 mm 3 mps 744 mmHg 63%
    08:00 +4°C° 0 mm 3 mps 744 mmHg 61%
    09:00 +5°C° 0 mm 3 mps 744 mmHg 59%
    10:00 +8°C° 0 mm 3 mps 744 mmHg 56%
    11:00 +10°C° 0 mm 3 mps 744 mmHg 54%
    12:00 +11°C° 0 mm 4 mps 744 mmHg 54%
    13:00 +12°C° 0 mm 4 mps 743 mmHg 53%
    14:00 +13°C° 0 mm 4 mps 743 mmHg 53%
    15:00 +12°C° 0 mm 4 mps 743 mmHg 57%
    16:00 +12°C° 0 mm 3 mps 742 mmHg 60%
    17:00 +12°C° 0 mm 3 mps 742 mmHg 64%
    18:00 +11°C° 0 mm 3 mps 742 mmHg 67%
    19:00 +10°C° 0 mm 3 mps 742 mmHg 69%
    20:00 +9°C° 0 mm 3 mps 742 mmHg 72%
    21:00 +9°C° 0 mm 3 mps 742 mmHg 73%
    22:00 +9°C° 0 mm 3 mps 742 mmHg 75%
    23:00 +9°C° 0 mm 3 mps 741 mmHg 76%

    26 September, Thursday

    Time Temperature Precipitation Wind Pressure Humidity
    00:00 +9°C° 0 mm 3 mps 741 mmHg 77%
    01:00 +8°C° 0 mm 3 mps 741 mmHg 78%
    02:00 +8°C° 0 mm 3 mps 741 mmHg 79%
    03:00 +8°C° 0 mm 3 mps 741 mmHg 80%
    04:00 +8°C° 0 mm 3 mps 741 mmHg 82%
    05:00 +8°C° 0 mm 3 mps 741 mmHg 84%
    06:00 +8°C° 0.4 mm 2 mps 741 mmHg 86%
    07:00 +8°C° 0.4 mm 2 mps 740 mmHg 87%
    08:00 +9°C° 0.4 mm 2 mps 740 mmHg 89%
    09:00 +9°C° 1 mm 3 mps 741 mmHg 90%
    10:00 +9°C° 1 mm 3 mps 741 mmHg 90%
    11:00 +10°C° 1 mm 4 mps 741 mmHg 91%
    12:00 +11°C° 0.1 mm 4 mps 741 mmHg 91%
    13:00 +11°C° 0.1 mm 3 mps 741 mmHg 90%
    14:00 +12°C° 0.1 mm 3 mps 740 mmHg 89%
    15:00 +13°C° 0.4 mm 2 mps 740 mmHg 90%
    16:00 +13°C° 0.4 mm 2 mps 740 mmHg 92%
    17:00 +13°C° 0.4 mm 2 mps 740 mmHg 93%
    18:00 +13°C° 0.2 mm 2 mps 741 mmHg 94%
    19:00 +12°C° 0.2 mm 2 mps 741 mmHg 96%
    20:00 +10°C° 0.2 mm 2 mps 741 mmHg 97%
    21:00 +10°C° 0 mm 2 mps 741 mmHg 97%
    22:00 +11°C° 0 mm 1 mps 741 mmHg 98%
    23:00 +11°C° 0 mm 1 mps 742 mmHg 98%

    27 September, Friday

    Time Temperature Precipitation Wind Pressure Humidity
    00:00 +11°C° 0 mm 1 mps 742 mmHg 98%
    01:00 +11°C° 0 mm 1 mps 742 mmHg 98%
    02:00 +11°C° 0 mm 1 mps 742 mmHg 98%
    03:00 +11°C° 0 mm 1 mps 742 mmHg 98%
    04:00 +11°C° 0 mm 1 mps 742 mmHg 98%
    05:00 +10°C° 0 mm 2 mps 743 mmHg 97%
    06:00 +10°C° 0 mm 2 mps 743 mmHg 97%
    07:00 +10°C° 0 mm 2 mps 743 mmHg 97%
    08:00 +10°C° 0 mm 2 mps 743 mmHg 96%
    09:00 +12°C° 0 mm 2 mps 743 mmHg 94%
    10:00 +12°C° 0 mm 2 mps 744 mmHg 92%
    11:00 +13°C° 0 mm 2 mps 744 mmHg 90%
    12:00 +13°C° 0 mm 2 mps 744 mmHg 88%
    13:00 +14°C° 0 mm 1 mps 744 mmHg 86%
    14:00 +14°C° 0 mm 1 mps 744 mmHg 84%
    15:00 +14°C° 0 mm 1 mps 745 mmHg 84%
    16:00 +14°C° 0 mm 1 mps 745 mmHg 85%
    17:00 +14°C° 0 mm 1 mps 745 mmHg 86%
    18:00 +13°C° 0 mm 1 mps 745 mmHg 88%
    19:00 +12°C° 0 mm 1 mps 745 mmHg 91%
    20:00 +12°C° 0 mm 1 mps 745 mmHg 93%
    21:00 +11°C° 0 mm 1 mps 745 mmHg 94%
    22:00 +11°C° 0 mm 1 mps 746 mmHg 94%
    23:00 +10°C° 0 mm 1 mps 746 mmHg 95%

    28 September, Saturday

    Time Temperature Precipitation Wind Pressure Humidity
    00:00 +9°C° 0 mm 2 mps 746 mmHg 96%
    01:00 +9°C° 0 mm 2 mps 745 mmHg 96%
    02:00 +8°C° 0 mm 2 mps 745 mmHg 96%
    03:00 +8°C° 0 mm 2 mps 745 mmHg 96%
    04:00 +8°C° 0 mm 3 mps 745 mmHg 96%
    05:00 +8°C° 0 mm 3 mps 745 mmHg 96%
    06:00 +9°C° 0 mm 3 mps 745 mmHg 93%
    07:00 +8°C° 0 mm 4 mps 744 mmHg 91%
    08:00 +10°C° 0 mm 4 mps 744 mmHg 89%
    09:00 +11°C° 0 mm 4 mps 744 mmHg 87%
    10:00 +12°C° 0 mm 5 mps 744 mmHg 85%
    11:00 +14°C° 0 mm 5 mps 744 mmHg 83%
    12:00 +15°C° 0.1 mm 5 mps 743 mmHg 80%
    13:00 +16°C° 0.1 mm 5 mps 743 mmHg 76%
    14:00 +17°C° 0.1 mm 5 mps 743 mmHg 73%
    15:00 +18°C° 0 mm 4 mps 742 mmHg 76%
    16:00 +18°C° 0 mm 4 mps 742 mmHg 78%
    17:00 +17°C° 0 mm 3 mps 742 mmHg 81%
    18:00 +16°C° 1.3 mm 3 mps 741 mmHg 86%
    19:00 +16°C° 1.3 mm 3 mps 741 mmHg 90%
    20:00 +14°C° 1.3 mm 3 mps 741 mmHg 95%
    21:00 +14°C° 1.7 mm 3 mps 741 mmHg 96%
    22:00 +14°C° 1.7 mm 3 mps 741 mmHg 97%
    23:00 +13°C° 1.7 mm 3 mps 740 mmHg 98%
    Show more